Location: *
(44.1392°N, 4.8079°E)
Time: 14:59:23
(UTC+00:00)

Lacrosse 5 rocket - Pass Details

Date: 18 October 2021
Orbit: 459 x 633 km, 57.0° (Epoch: 04 December)

Event Time Altitude Azimuth Distance (km) Brightness Sun altitude
Exits shadow 05:26:38 - 269° (W) 2,032 3.5 -6.6°
Reaches altitude 10° 05:27:06 10° 272° (W) 1,874 3.4 -6.5°
Maximum altitude 05:30:52 29° 333° (NNW) 1,088 2.5 -5.9°
Drops below altitude 10° 05:34:49 10° 35° (NE) 1,967 4.5 -5.2°
Sets 05:37:24 0° 46° (NE) 2,896 5.6 -4.7°
